Barksdale AFB, LA

5:27 PM CDT on September 21, 2017 (GMT -0500)
Barksdale Air Force Base

Weather History for KBAD - May, 2014

Change the Weather History Date:

Saturday, May 3, 2014

  Actual Average Record
Temperature  
Mean Temperature 66 °F -  
Max Temperature 86 °F 79 °F 88 °F (2012)
Min Temperature 46 °F 59 °F 41 °F (2013)
Cooling Degree Days 1    
Growing Degree Days 16 (Base 50)    
Moisture  
Dew Point 45 °F    
Average Humidity 54    
Maximum Humidity 94    
Minimum Humidity 19    
Precipitation  
Precipitation 0.00 in - - ()
Sea Level Pressure  
Sea Level Pressure 30.02 in    
Wind  
Wind Speed 3 mph (SSE)    
Max Wind Speed 8 mph    
Max Gust Speed -    
Visibility 10 miles    
Events      
Averages and records for this station are not official NWS values.
T = Trace of Precipitation, MM = Missing Value Source: NWS Daily Summary

Daily Weather History Graph

Daily Weather History Graph

Search for Another Location

Airport or City:

Trip Planner

Search our weather history database for the weather conditions in past years. The results will help you decide how hot, cold, wet, or windy it might be!

Date:

Astronomy

May. 03, 2014 Rise Set
Actual Time 6:26 AM CDT 7:57 PM CDT
Civil Twilight 5:59 AM CDT 8:23 PM CDT
Nautical Twilight 5:28 AM CDT 8:55 PM CDT
Astronomical Twilight 4:55 AM CDT 9:28 PM CDT
Moon 9:59 AM CDT (5/3) No Moon Set
Length of Visible Light 14h 24m
Length of Day
13h 31m
Waxing Crescent, 20% of the Moon is Illuminated
May 3
Waxing Crescent
May 6
First Quarter
May 14
Full
May 21
Last Quarter
May 28
New

Hourly Weather History & Observations

Time (CDT) Temp. Dew Point Humidity Pressure Visibility Wind Dir Wind Speed Gust Speed Precip Events Conditions
12:58 AM 53.2 °F 45.9 °F 76% 29.98 in 10.0 mi SE 3.5 mph - N/A   Clear
1:58 AM 51.8 °F 46.0 °F 81% 29.99 in 10.0 mi Calm Calm - N/A   Clear
2:58 AM 50.2 °F 46.2 °F 86% 29.99 in 10.0 mi SSE 2.3 mph - N/A   Clear
3:58 AM 48.4 °F 46.4 °F 93% 30.00 in 10.0 mi SE 2.3 mph - N/A   Clear
4:58 AM 48.9 °F 45.9 °F 89% 30.00 in 10.0 mi East 1.2 mph - N/A   Clear
5:58 AM 46.9 °F 45.3 °F 94% 30.01 in 10.0 mi SSE 3.5 mph - N/A   Clear
6:58 AM 47.8 °F 45.5 °F 92% 30.02 in 10.0 mi Calm Calm - N/A   Clear
7:58 AM 55.0 °F 50.4 °F 84% 30.03 in 10.0 mi SSE 3.5 mph - N/A   Clear
8:58 AM 64.2 °F 48.0 °F 56% 30.04 in 10.0 mi SW 6.9 mph - N/A   Clear
9:58 AM 69.3 °F 47.1 °F 45% 30.05 in 10.0 mi Calm Calm - N/A   Clear
10:58 AM 73.4 °F 45.7 °F 37% 30.05 in 10.0 mi ENE 1.2 mph - N/A   Clear
11:58 AM 78.6 °F 41.9 °F 27% 30.06 in 10.0 mi Variable 1.2 mph - N/A   Clear
12:58 PM 81.1 °F 41.4 °F 24% 30.04 in 10.0 mi WSW 8.1 mph - N/A   Clear
1:58 PM 83.7 °F 37.2 °F 19% 30.03 in 10.0 mi Variable 4.6 mph - N/A   Clear
2:58 PM 84.9 °F 38.3 °F 19% 30.01 in 10.0 mi Variable 3.5 mph - N/A   Clear
3:58 PM 86.0 °F 38.7 °F 19% 30.00 in 10.0 mi Variable 2.3 mph - N/A   Clear
4:58 PM 85.5 °F 38.5 °F 19% 30.00 in 10.0 mi SSE 4.6 mph - N/A   Clear
5:58 PM 85.5 °F 41.4 °F 21% 30.00 in 10.0 mi SSE 6.9 mph - N/A   Clear
6:58 PM 84.0 °F 39.9 °F 21% 30.00 in 10.0 mi South 6.9 mph - N/A   Clear
7:58 PM 77.0 °F 45.9 °F 33% 30.02 in 10.0 mi SSE 4.6 mph - N/A   Clear
8:58 PM 68.9 °F 51.4 °F 54% 30.03 in 10.0 mi SSE 4.6 mph - N/A   Clear
9:58 PM 65.3 °F 52.7 °F 64% 30.05 in 10.0 mi East 1.2 mph - N/A   Clear
10:58 PM 63.0 °F 50.9 °F 65% 30.06 in 10.0 mi SSE 3.5 mph - N/A   Clear
11:58 PM 60.1 °F 51.1 °F 72% 30.06 in 10.0 mi SSE 3.5 mph - N/A   Clear